This demonstration page uses our WeatherBlox Daily Observations layout. Learn more.

Hourly Observations for June 16, 2019

Temp ( °F °C ) Dew Point ( °F °C ) Humidity (%) Winds ( mph kmh ) Pressure ( in mb ) Visibility ( mi km ) Precip ( " mm )
12:15 am 00:15 Clear 58 14.6 56 13.6 94 94 N 7 11 29.91 1013 10 16.09344 0 0
12:35 am 00:35 Clear 58 14.6 56 13.5 93 93 N 6 9 29.88 1012 10 16.09344 0 0
12:55 am 00:55 Clear 58 14.3 56 13.1 93 93 NNW 5 7 29.88 1012 10 16.09344 0 0
1:15 am 01:15 Clear 56 13.6 55 12.5 93 93 NNW 5 7 29.88 1012 10 16.09344 0 0
1:35 am 01:35 Clear 58 14.5 55 13 91 91 W 5 7 29.91 1013 10 16.09344 0 0
1:55 am 01:55 Clear 59 14.9 56 13.1 89 89 WNW 5 7 29.88 1012 10 16.09344 0 0
2:15 am 02:15 Clear 55 12.9 54 12 94 94 WNW 3 6 29.91 1013 10 16.09344 0 0
2:35 am 02:35 Clear 55 12.5 54 12 97 97 WNW 3 6 29.88 1012 10 16.09344 0 0
2:55 am 02:55 Clear 53 11.7 52 11 96 96 Calm 29.91 1013 10 16.09344 0 0
3:15 am 03:15 Clear 53 11.6 52 11.3 98 98 Calm 29.91 1013 10 16.09344 0 0
3:35 am 03:35 Clear 53 11.8 53 11.5 98 98 SSW 3 6 29.94 1014 10 16.09344 0 0
3:55 am 03:55 Clear 55 12.8 54 12 95 95 SW 3 6 29.97 1015 10 16.09344 0 0
4:15 am 04:15 Clear 52 11.1 51 10.7 97 97 Calm 29.94 1014 10 16.09344 0 0
4:35 am 04:35 Clear 54 12.1 53 11.8 98 98 NW 3 6 29.94 1014 10 16.09344 0 0
4:55 am 04:55 Clear 53 11.4 52 11 97 97 NNW 7 11 29.94 1014 10 16.09344 0 0
5:15 am 05:15 Clear 53 11.5 52 11.2 98 98 NNW 5 7 29.94 1014 10 16.09344 0 0
5:35 am 05:35 Clear 53 11.8 52 11.2 96 96 WNW 3 6 29.94 1014 10 16.09344 0 0
5:55 am 05:55 Clear 54 12 53 11.6 97 97 WSW 5 7 29.94 1014 10 16.09344 0 0
6:15 am 06:15 Sunny 53 11.4 52 11.1 98 98 NW 7 11 29.94 1014 10 16.09344 0 0
6:35 am 06:35 Sunny 53 11.8 53 11.5 98 98 WNW 5 7 29.94 1014 10 16.09344 0 0
6:55 am 06:55 Sunny 55 12.5 54 12 97 97 Calm 29.97 1015 10 16.09344 0 0
7:15 am 07:15 Sunny 55 13 55 12.5 97 97 NW 3 6 29.94 1014 10 16.09344 0 0
7:35 am 07:35 Sunny 57 13.7 55 13 96 96 WNW 6 9 29.94 1014 10 16.09344 0 0
7:55 am 07:55 Sunny 59 14.8 56 13.6 93 93 NW 3 6 29.94 1014 10 16.09344 0 0
8:15 am 08:15 Sunny 61 16 58 14.2 89 89 NW 3 6 29.94 1014 10 16.09344 0 0
8:35 am 08:35 Sunny 63 17.4 57 14.1 81 81 NW 3 6 29.91 1013 10 16.09344 0 0
8:55 am 08:55 Sunny 65 18.6 58 14.4 77 77 Calm 29.94 1014 10 16.09344 0 0
9:15 am 09:15 Partly Cloudy 68 19.8 57 13.7 68 68 Calm 29.94 1014 10 16.09344 0 0
9:35 am 09:35 Partly Cloudy 70 21.2 56 13.4 61 61 Calm 29.91 1013 10 16.09344 0 0
9:55 am 09:55 Sunny 71 21.8 55 12.7 56 56 Calm 29.91 1013 10 16.09344 0 0
10:15 am 10:15 Sunny 73 22.8 56 13.5 56 56 Calm 29.91 1013 10 16.09344 0 0
10:35 am 10:35 Sunny 74 23.3 55 12.9 52 52 Calm 29.91 1013 10 16.09344 0 0
10:55 am 10:55 Sunny 75 24 56 13.2 51 51 SSE 3 6 29.88 1012 10 16.09344 0 0
11:15 am 11:15 Partly Cloudy 75 23.9 56 13.1 51 51 Calm 29.88 1012 10 16.09344 0 0
11:35 am 11:35 Mostly Cloudy 76 24.5 55 12.9 48 48 Calm 29.88 1012 10 16.09344 0 0
11:55 am 11:55 Cloudy 76 24.3 55 13 49 49 Calm 29.88 1012 10 16.09344 0 0
12:15 pm 12:15 Cloudy 75 23.7 54 12.3 49 49 Calm 29.88 1012 10 16.09344 0 0
12:35 pm 12:35 Cloudy 75 23.8 55 13 51 51 Calm 29.88 1012 10 16.09344 0 0
12:55 pm 12:55 Cloudy 75 24.1 55 12.9 50 50 Calm 29.85 1011 10 16.09344 0 0
1:15 pm 13:15 Cloudy 77 24.9 55 12.9 47 47 Calm 29.85 1011 10 16.09344 0 0
1:35 pm 13:35 Cloudy 75 24.1 56 13.4 51 51 Calm 29.88 1012 10 16.09344 0 0
1:55 pm 13:55 Cloudy 75 23.8 56 13.5 53 53 WNW 6 9 29.85 1011 10 16.09344 0 0
2:15 pm 14:15 Cloudy 73 22.8 56 13.6 56 56 WNW 5 7 29.88 1012 10 16.09344 0 0
2:35 pm 14:35 Cloudy 73 22.7 56 13.6 57 57 WNW 6 9 29.88 1012 10 16.09344 0 0
2:55 pm 14:55 Mostly Cloudy 73 23 58 14.3 58 58 Calm 29.88 1012 10 16.09344 0 0
3:15 pm 15:15 Mostly Cloudy 76 24.2 55 12.7 49 49 Calm 29.85 1011 10 16.09344 0 0
3:35 pm 15:35 Mostly Cloudy 78 25.8 56 13.2 46 46 ENE 3 6 29.85 1011 10 16.09344 0 0
3:55 pm 15:55 Partly Cloudy 79 26.2 56 13.1 44 44 N 8 13 29.83 1010 10 16.09344 0 0
4:15 pm 16:15 Sunny 77 24.8 56 13.4 49 49 N 9 15 29.83 1010 10 16.09344 0 0
4:35 pm 16:35 Partly Cloudy 76 24.2 56 13.5 51 51 N 10 17 29.83 1010 10 16.09344 0 0
4:55 pm 16:55 Sunny 74 23.5 57 13.7 54 54 N 7 11 29.8 1009 10 16.09344 0 0
5:15 pm 17:15 Sunny 75 23.9 57 13.9 54 54 NNE 5 7 29.8 1009 10 16.09344 0 0
5:35 pm 17:35 Sunny 74 23.6 58 14.4 56 56 NNE 6 9 29.8 1009 10 16.09344 0 0
5:55 pm 17:55 Sunny 74 23.5 57 13.7 54 54 NE 7 11 29.8 1009 10 16.09344 0 0
6:15 pm 18:15 Sunny 74 23.2 58 14.7 59 59 NE 6 9 29.83 1010 10 16.09344 0 0
6:35 pm 18:35 Partly Cloudy 73 22.9 59 14.8 60 60 NE 5 7 29.83 1010 10 16.09344 0 0
6:55 pm 18:55 Mostly Cloudy 73 22.7 59 15.1 62 62 NE 5 7 29.85 1011 10 16.09344 0 0
7:15 pm 19:15 Partly Cloudy 72 22.2 60 15.3 65 65 NNE 5 7 29.85 1011 10 16.09344 0 0
7:35 pm 19:35 Partly Cloudy 71 21.5 61 16.1 71 71 NE 6 9 29.85 1011 10 16.09344 0 0
7:55 pm 19:55 Partly Cloudy 70 21 61 15.9 73 73 NE 6 9 29.83 1010 10 16.09344 0 0
8:15 pm 20:15 Partly Cloudy 69 20.5 61 16 76 76 ENE 6 9 29.83 1010 10 16.09344 0 0
8:35 pm 20:35 Sunny 69 20.3 60 15.7 75 75 ENE 7 11 29.83 1010 10 16.09344 0 0
8:55 pm 20:55 Partly Cloudy 69 20.3 60 15.5 74 74 N 3 6 29.85 1011 10 16.09344 0 0
9:15 pm 21:15 Mostly Cloudy 68 20 60 15.7 76 76 NE 3 6 29.85 1011 10 16.09344 0 0
9:35 pm 21:35 Partly Cloudy 66 19.1 60 15.7 81 81 N 5 7 29.88 1012 10 16.09344 0 0
9:55 pm 21:55 Partly Cloudy 65 18.6 60 15.3 81 81 NE 6 9 29.91 1013 10 16.09344 0 0
10:15 pm 22:15 Partly Cloudy 65 18.5 59 15 80 80 NNE 6 9 29.91 1013 10 16.09344 0 0
10:35 pm 22:35 Partly Cloudy 64 18 59 15 83 83 NE 6 9 29.91 1013 10 16.09344 0 0
10:50 pm 22:50 Mostly Cloudy 65 18.5 59 15 80 80 NE 5 7 29.91 1013 10 16.09344 0 0
11:15 pm 23:15 Cloudy 65 18.6 59 15 80 80 NE 7 11 29.91 1013 10 16.09344 0 0
11:35 pm 23:35 Cloudy 66 18.7 59 14.9 79 79 ENE 8 13 29.91 1013 10 16.09344 0 0
11:55 pm 23:55 Cloudy 66 18.8 58 14.7 77 77 E 5 7 29.91 1013 10 16.09344 0 0

Powered by AerisWeather